Location: Newark
(34.5992°S, 58.3747°W)
Time: 02:39:04
(UTC+00:00)

STARLINK 1007 - Pass Details

Date: 09 December 2019
Orbit: 347 x 352 km, 53.0° (Epoch: 26 January)

Event Time Altitude Azimuth Distance (km) Brightness Sun altitude
Rises 23:19:16 0° 243° (WSW) 2,249 9.6 -4.6°
Reaches altitude 10° 23:21:44 10° 263° (W) 1,402 7.0 -5.0°
Maximum altitude 23:23:55 18° 307° (NW) 1,044 5.3 -5.4°
Drops below altitude 10° 23:26:07 10° 351° (N) 1,408 5.5 -5.8°
Enters shadow 23:28:33 - 11° (NNE) 2,239 6.3 -6.2°
